Greenville, MS

5:16 AM CDT on August 17, 2017 (GMT -0500)
Mid Delta Regional

Weather History for KGLH - May, 2013

Change the Weather History Date:

Saturday, May 25, 2013

  Actual Average Record
Temperature  
Mean Temperature 72 °F 75 °F  
Max Temperature 84 °F 84 °F 95 °F (1911)
Min Temperature 59 °F 65 °F 49 °F (1925)
Degree Days  
Heating Degree Days 0 0  
Month to date heating degree days 52 10  
Since 1 July heating degree days 2695 2771  
Cooling Degree Days 7 10  
Month to date cooling degree days 127 175  
Year to date cooling degree days 206 261  
Growing Degree Days 21 (Base 50)    
Moisture  
Dew Point 53 °F    
Average Humidity 56    
Maximum Humidity 78    
Minimum Humidity 33    
Precipitation  
Precipitation 0.00 in 0.14 in 3.11 in (1909)
Month to date precipitation 3.56 4.19  
Year to date precipitation 24.22 23.54  
Sea Level Pressure  
Sea Level Pressure 30.22 in    
Wind  
Wind Speed 5 mph (ESE)    
Max Wind Speed 12 mph    
Max Gust Speed 16 mph    
Visibility 10 miles    
Events      
T = Trace of Precipitation, MM = Missing Value Source: NWS Daily Summary

Daily Weather History Graph

Daily Weather History Graph

Search for Another Location

Airport or City:

Trip Planner

Search our weather history database for the weather conditions in past years. The results will help you decide how hot, cold, wet, or windy it might be!

Date:

Astronomy

May. 25, 2013 Rise Set
Actual Time 5:57 AM CDT 8:04 PM CDT
Civil Twilight 5:29 AM CDT 8:32 PM CDT
Nautical Twilight 4:55 AM CDT 9:07 PM CDT
Astronomical Twilight 4:18 AM CDT 9:44 PM CDT
Moon 8:53 PM CDT (5/25) 6:23 AM CDT (5/25)
Length of Visible Light 15h 03m
Length of Day
14h 07m
Full, 100% of the Moon is Illuminated
May 25
Full
May 31
Last Quarter
Jun 8
New
Jun 16
First Quarter
Jun 23
Full

Hourly Weather History & Observations

Time (CDT) Temp. Heat Index Dew Point Humidity Pressure Visibility Wind Dir Wind Speed Gust Speed Precip Events Conditions
12:53 AM 63.0 °F - 53.1 °F 70% 30.22 in 10.0 mi East 4.6 mph - N/A   Clear
1:53 AM 60.1 °F - 53.1 °F 78% 30.23 in 10.0 mi East 4.6 mph - N/A   Clear
2:53 AM 61.0 °F - 54.0 °F 78% 30.23 in 10.0 mi East 5.8 mph - N/A   Clear
3:53 AM 61.0 °F - 53.1 °F 75% 30.24 in 10.0 mi East 5.8 mph - N/A   Clear
4:53 AM 60.1 °F - 52.0 °F 75% 30.25 in 10.0 mi East 5.8 mph - N/A   Clear
5:53 AM 60.1 °F - 52.0 °F 75% 30.25 in 10.0 mi ESE 5.8 mph - N/A   Clear
6:53 AM 60.1 °F - 52.0 °F 75% 30.27 in 10.0 mi East 4.6 mph - N/A   Clear
7:53 AM 63.0 °F - 52.0 °F 67% 30.29 in 10.0 mi ESE 6.9 mph - N/A   Clear
8:53 AM 68.0 °F - 52.0 °F 56% 30.30 in 10.0 mi ESE 10.4 mph - N/A   Clear
9:53 AM 72.0 °F - 53.1 °F 51% 30.29 in 10.0 mi SE 9.2 mph - N/A   Clear
10:53 AM 75.0 °F - 53.1 °F 46% 30.27 in 10.0 mi SE 8.1 mph - N/A   Clear
11:53 AM 77.0 °F - 52.0 °F 42% 30.27 in 10.0 mi Variable 4.6 mph - N/A   Clear
12:53 PM 79.0 °F - 54.0 °F 42% 30.25 in 10.0 mi SE 4.6 mph - N/A   Clear
1:53 PM 82.0 °F 81.3 °F 54.0 °F 38% 30.23 in 10.0 mi ESE 5.8 mph - N/A   Clear
2:53 PM 82.0 °F - 51.1 °F 34% 30.21 in 10.0 mi East 3.5 mph - N/A   Clear
3:53 PM 82.9 °F - 50.0 °F 32% 30.21 in 10.0 mi Variable 3.5 mph - N/A   Clear
4:53 PM 82.9 °F - 50.0 °F 32% 30.20 in 10.0 mi SSE 4.6 mph - N/A   Clear
5:53 PM 82.0 °F - 52.0 °F 35% 30.18 in 10.0 mi Calm Calm - N/A   Clear
6:53 PM 79.0 °F - 55.0 °F 44% 30.16 in 10.0 mi ESE 4.6 mph - N/A   Clear
7:53 PM 73.0 °F - 55.0 °F 53% 30.15 in 10.0 mi East 5.8 mph - N/A   Clear
8:53 PM 66.9 °F - 57.9 °F 73% 30.16 in 10.0 mi ESE 3.5 mph - N/A   Clear
9:53 PM 64.0 °F - 57.0 °F 78% 30.17 in 10.0 mi SE 4.6 mph - N/A   Clear
10:53 PM 64.9 °F - 55.9 °F 73% 30.19 in 10.0 mi SE 3.5 mph - N/A   Clear
11:53 PM 64.9 °F - 55.9 °F 73% 30.17 in 10.0 mi SSE 6.9 mph - N/A   Clear